Weather History for Danbury, CT

Change the Weather History Date:

Monday, November 19, 2012

  Actual Average Record
Temperature  
Mean Temperature 34 °F -  
Max Temperature 48 °F 49 °F 68 °F (1991)
Min Temperature 21 °F 31 °F 17 °F (1997)
Degree Days  
Heating Degree Days 30    
Moisture  
Dew Point 27 °F    
Average Humidity 81    
Maximum Humidity 96    
Minimum Humidity 56    
Precipitation  
Precipitation 0.00 in - - ()
Sea Level Pressure  
Sea Level Pressure 30.44 in    
Wind  
Wind Speed 1 mph (ENE)    
Max Wind Speed 7 mph    
Max Gust Speed -    
Visibility 9 miles    
Events      
Averages and records for this station are not official NWS values.
T = Trace of Precipitation, MM = Missing Value Source: NWS Daily Summary

Daily Weather History Graph

Daily Weather History Graph

Search for Another Location

Airport:

Trip Planner

Search our weather history database for the weather conditions in past years. The results will help you decide how hot, cold, wet, or windy it might be!

Date:

Astronomy

Nov. 19, 2012 Rise Set
Actual Time 6:47 AM EST 4:30 PM EST
Civil Twilight 6:17 AM EST 5:00 PM EST
Nautical Twilight 5:43 AM EST 5:34 PM EST
Astronomical Twilight 5:10 AM EST 6:07 PM EST
Moon 11:47 AM EST (11/19) 10:56 PM EST (11/19)
Length of Visible Light 10h 43m
Length of Day
9h 43m
Waxing Crescent, 40% of the Moon is Illuminated
Nov 19
Waxing Crescent
Nov 20
First Quarter
Nov 28
Full
Dec 6
Last Quarter
Dec 13
New

Hourly Weather History & Observations

Time (EST) Temp. Windchill Dew Point Humidity Pressure Visibility Wind Dir Wind Speed Gust Speed Precip Events Conditions
12:53 AM 27.0 °F - 24.1 °F 89% 30.60 in 7.0 mi Calm Calm - N/A   Clear
1:53 AM 26.1 °F - 23.0 °F 88% 30.58 in 7.0 mi Calm Calm - N/A   Clear
2:53 AM 25.0 °F - 21.9 °F 88% 30.58 in 7.0 mi Calm Calm - N/A   Clear
3:53 AM 24.1 °F - 21.9 °F 91% 30.56 in 7.0 mi Calm Calm - N/A   Clear
4:53 AM 24.1 °F - 21.9 °F 91% 30.56 in 7.0 mi Calm Calm - N/A   Clear
5:53 AM 21.9 °F - 21.0 °F 96% 30.54 in 7.0 mi Calm Calm - N/A   Clear
6:53 AM 24.1 °F - 21.0 °F 88% 30.54 in 7.0 mi Calm Calm - N/A   Clear
7:53 AM 25.0 °F - 21.9 °F 88% 30.54 in 7.0 mi Calm Calm - N/A   Clear
8:53 AM 32.0 °F - 28.0 °F 85% 30.53 in 8.0 mi Calm Calm - N/A   Clear
9:53 AM 39.0 °F 34.8 °F 30.9 °F 73% 30.50 in 10.0 mi NE 5.8 mph - N/A   Clear
10:53 AM 42.1 °F 38.4 °F 33.1 °F 70% 30.49 in 10.0 mi NE 5.8 mph - N/A   Mostly Cloudy
11:53 AM 45.0 °F 41.8 °F 34.0 °F 65% 30.45 in 10.0 mi East 5.8 mph - N/A   Scattered Clouds
12:53 PM 46.9 °F - 34.0 °F 61% 30.41 in 10.0 mi ENE 5.8 mph - N/A   Scattered Clouds
1:53 PM 46.9 °F - 35.1 °F 63% 30.39 in 10.0 mi ESE 4.6 mph - N/A   Clear
2:53 PM 48.0 °F - 33.1 °F 56% 30.38 in 10.0 mi NE 6.9 mph - N/A   Clear
3:53 PM 46.9 °F - 33.1 °F 59% 30.37 in 10.0 mi ENE 4.6 mph - N/A   Partly Cloudy
4:53 PM 41.0 °F - 32.0 °F 70% 30.37 in 10.0 mi Calm Calm - N/A   Clear
5:53 PM 35.1 °F - 30.9 °F 85% 30.37 in 10.0 mi Calm Calm - N/A   Clear
6:53 PM 32.0 °F 28.7 °F 28.9 °F 88% 30.36 in 10.0 mi SW 3.5 mph - N/A   Clear
7:53 PM 30.0 °F 26.5 °F 28.0 °F 92% 30.34 in 10.0 mi SW 3.5 mph - N/A   Clear
8:53 PM 28.9 °F - 27.0 °F 92% 30.32 in 9.0 mi Calm Calm - N/A   Clear
9:53 PM 28.0 °F - 25.0 °F 88% 30.31 in 8.0 mi Calm Calm - N/A   Clear
10:53 PM 28.0 °F - 26.1 °F 92% 30.29 in 8.0 mi Calm Calm - N/A   Clear
11:53 PM 27.0 °F - 24.1 °F 89% 30.28 in 9.0 mi Calm Calm - N/A   Clear